Location: *
(35.1500°N, 76.6700°W)
Time: 13:33:27
(UTC+00:00)

Cosmos 1726 Rocket - Pass Details

Date: 13 October 2019
Orbit: 602 x 630 km, 82.5° (Epoch: 17 November)

Event Time Altitude Azimuth Distance (km) Brightness Sun altitude
Rises 23:38:32 0° 191° (SSW) 2,897 7.2 -13.9°
Reaches altitude 10° 23:40:46 10° 194° (SSW) 1,991 6.3 -14.3°
Maximum altitude 23:45:10 68° 278° (W) 674 3.9 -15.2°
Drops below altitude 10° 23:49:33 10° 1° (N) 1,989 6.2 -16.1°
Sets 23:51:48 0° 4° (N) 2,894 7.0 -16.6°
